Location: Arena
(42.5007°N, 9.4650°E)
Time: 03:39:07
(UTC+00:00)

Cosmos 1833 Rocket - Pass Details

Date: 09 April 2020
Orbit: 834 x 838 km, 71.0° (Epoch: 02 June)

Event Time Altitude Azimuth Distance (km) Brightness Sun altitude
Exits shadow 20:39:20 33° 49° (NE) 1,391 3.7 -27.2°
Drops below altitude 10° 20:42:29 10° 33° (NNE) 2,458 5.2 -27.6°
Sets 20:44:58 0° 29° (NNE) 3,395 6.0 -27.9°
